Weather History for San Angelo, TX

Change the Weather History Date:

Saturday, February 4, 2012

  Actual Average Record
Temperature  
Mean Temperature 50 °F 48 °F  
Max Temperature 55 °F 62 °F 86 °F (2008)
Min Temperature 45 °F 35 °F 7 °F (1996)
Degree Days  
Heating Degree Days 15 17  
Month to date heating degree days 29 68  
Since 1 July heating degree days 1379 1612  
Cooling Degree Days 0 0  
Month to date cooling degree days 1 0  
Year to date cooling degree days 3 1  
Moisture  
Dew Point 31 °F    
Average Humidity 51    
Maximum Humidity 61    
Minimum Humidity 41    
Precipitation  
Precipitation 0.00 in 0.04 in 1.19 in (1979)
Month to date precipitation 0.00 0.16  
Year to date precipitation 3.30 1.09  
Snow  
Snow 0.00 in 0.10 in 2.00 in (1923)
Month to date snowfall 0.0 0.1  
Since 1 July snowfall 2.6 1.9  
Snow Depth 0.00 in    
Sea Level Pressure  
Sea Level Pressure 30.25 in    
Wind  
Wind Speed 15 mph (NNE)    
Max Wind Speed 22 mph    
Max Gust Speed 26 mph    
Visibility 10 miles    
Events      
T = Trace of Precipitation, MM = Missing Value Source: NWS Daily Summary

Daily Weather History Graph

Daily Weather History Graph

Search for Another Location

Airport:

Trip Planner

Search our weather history database for the weather conditions in past years. The results will help you decide how hot, cold, wet, or windy it might be!

Date:

Astronomy

Feb. 04, 2012 Rise Set
Actual Time 7:32 AM CST 6:19 PM CST
Civil Twilight 7:07 AM CST 6:44 PM CST
Nautical Twilight 6:38 AM CST 7:13 PM CST
Astronomical Twilight 6:10 AM CST 7:42 PM CST
Moon 3:25 PM CST (2/4) 4:52 AM CST (2/4)
Length of Visible Light 11h 37m
Length of Day
10h 46m
Waxing Gibbous, 89% of the Moon is Illuminated
Feb 4
Waxing Gibbous
Feb 7
Full
Feb 14
Last Quarter
Feb 21
New
Feb 29
First Quarter

Hourly Weather History & Observations

Time (CST) Temp. Windchill Dew Point Humidity Pressure Visibility Wind Dir Wind Speed Gust Speed Precip Events Conditions
12:51 AM 51.1 °F - 36.0 °F 56% 30.09 in 10.0 mi NNE 11.5 mph - N/A   Clear
1:51 AM 50.0 °F - 37.0 °F 61% 30.11 in 10.0 mi NNE 8.1 mph - N/A   Clear
2:51 AM 48.9 °F - 36.0 °F 61% 30.12 in 10.0 mi North 16.1 mph - N/A   Mostly Cloudy
3:51 AM 48.0 °F - 35.1 °F 61% 30.14 in 10.0 mi North 13.8 mph - N/A   Overcast
4:51 AM 46.9 °F - 34.0 °F 61% 30.15 in 10.0 mi NNE 15.0 mph - N/A   Overcast
5:51 AM 46.0 °F 38.8 °F 32.0 °F 58% 30.20 in 10.0 mi North 18.4 mph - N/A   Overcast
6:51 AM 45.0 °F 38.9 °F 30.9 °F 58% 30.23 in 10.0 mi North 12.7 mph - N/A   Overcast
7:51 AM 45.0 °F 37.9 °F 28.9 °F 53% 30.25 in 10.0 mi North 16.1 mph - N/A   Mostly Cloudy
8:51 AM 46.0 °F 39.9 °F 30.0 °F 54% 30.27 in 10.0 mi North 13.8 mph - N/A   Overcast
9:51 AM 46.0 °F 39.3 °F 28.9 °F 51% 30.30 in 10.0 mi North 16.1 mph - N/A   Overcast
10:51 AM 46.9 °F - 30.0 °F 52% 30.31 in 10.0 mi North 16.1 mph - N/A   Scattered Clouds
11:51 AM 48.9 °F - 30.0 °F 48% 30.30 in 10.0 mi North 11.5 mph - N/A   Mostly Cloudy
12:51 PM 51.1 °F - 30.9 °F 46% 30.28 in 10.0 mi NNE 12.7 mph 19.6 mph N/A   Scattered Clouds
1:51 PM 54.0 °F - 30.9 °F 41% 30.24 in 10.0 mi North 16.1 mph 20.7 mph N/A   Clear
2:51 PM 54.0 °F - 30.0 °F 40% 30.23 in 10.0 mi North 12.7 mph 20.7 mph N/A   Scattered Clouds
3:51 PM 53.1 °F - 30.0 °F 41% 30.25 in 10.0 mi North 13.8 mph - N/A   Overcast
4:51 PM 52.0 °F - 30.0 °F 43% 30.25 in 10.0 mi North 12.7 mph - N/A   Overcast
5:51 PM 52.0 °F - 28.9 °F 41% 30.27 in 10.0 mi NNE 18.4 mph - N/A   Overcast
6:51 PM 51.1 °F - 30.0 °F 44% 30.28 in 10.0 mi NNE 15.0 mph - N/A   Overcast
7:51 PM 51.1 °F - 30.0 °F 44% 30.30 in 10.0 mi NNE 12.7 mph - N/A   Overcast
8:51 PM 51.1 °F - 30.0 °F 44% 30.32 in 10.0 mi NNE 16.1 mph 19.6 mph N/A   Overcast
9:51 PM 48.9 °F - 28.9 °F 46% 30.34 in 10.0 mi NNE 20.7 mph - N/A   Overcast
10:51 PM 46.9 °F - 28.9 °F 50% 30.36 in 10.0 mi NNE 13.8 mph 24.2 mph N/A   Mostly Cloudy
11:51 PM 45.0 °F 38.2 °F 28.9 °F 53% 30.36 in 10.0 mi NNE 15.0 mph - N/A   Overcast